Location: City of Moscow
(46.7306°N, 116.9989°W)
Time: 13:58:12
(UTC+00:00)

CUBEBUG 2 - Pass Details

Date: 21 April 2026
Orbit: 546 x 628 km, 97.9° (Epoch: 15 May)

Event Time Altitude Azimuth Distance (km) Brightness Sun altitude
Rises 11:19:23 0° 1° (N) 2,858 ? -14.5°
Reaches altitude 10° 11:21:57 10° 346° (NNW) 1,935 ? -14.2°
Maximum altitude 11:25:10 22° 296° (WNW) 1,300 ? -13.7°
Enters shadow 11:26:42 18° 266° (W) 1,455 ? -13.5°
